< < Back
Terminal Aerodrome Forecast


Current Version              Previous Versions:   1  2  3  4  5  6  7  8  9  

Terminal Aerodrome Forecast

878
FTUS42 KCHS 020500
TAFCHS
TAF
KCHS 020535Z 0206/0306 VRB03KT P6SM SCT300
      TEMPO 0210/0212 5SM BR
     FM021700 13007KT P6SM FEW045
     FM030000 15003KT P6SM FEW250=



Latest METAR

314
SAUS80 KWBC 021000 CCB
MTRCHS
METAR KCHS 020956Z 00000KT 7SM CLR 18/17 A3005 RMK AO2 SLP176
T01830172


USA.gov is the U.S. government's official web portal to all federal, state and local government web resources and services.